When you browse on this site, cookies collect data to enhance your experience and personalize the content and advertising you see.
Visit our Privacy Policy to learn more. By continuing to use the site, you agree to this use of cookies and data.
  • In Hungary
  • List of Countries
  • For 7 days
  • Water Temperature
  • Satellite Maps
  • Weather Map
  • News
  • Weather Widgets
  • user-avatar
    Login

    Hourly Weather Naples

    Today, 21 July, Sunday

    Time Temperature Precipitation Wind Pressure Humidity
    00:00 +28°C° 0.1 mm 2 mps 762 mmHg 81%
    01:00 +28°C° 0.1 mm 3 mps 761 mmHg 82%
    02:00 +28°C° 0 mm 3 mps 761 mmHg 83%
    03:00 +28°C° 0 mm 3 mps 761 mmHg 84%
    04:00 +27°C° 0 mm 3 mps 761 mmHg 84%
    05:00 +28°C° 0 mm 3 mps 761 mmHg 84%
    06:00 +28°C° 0 mm 3 mps 761 mmHg 83%
    07:00 +28°C° 0 mm 3 mps 761 mmHg 82%
    08:00 +30°C° 0 mm 3 mps 762 mmHg 74%
    09:00 +33°C° 0 mm 3 mps 762 mmHg 65%
    10:00 +34°C° 0 mm 4 mps 762 mmHg 57%
    11:00 +35°C° 0.3 mm 4 mps 762 mmHg 57%
    12:00 +35°C° 0.3 mm 4 mps 762 mmHg 56%
    13:00 +35°C° 0.3 mm 4 mps 762 mmHg 56%
    14:00 +35°C° 1.8 mm 4 mps 761 mmHg 58%
    15:00 +34°C° 1.8 mm 4 mps 761 mmHg 60%
    16:00 +34°C° 1.8 mm 4 mps 761 mmHg 62%
    17:00 +33°C° 1.4 mm 3 mps 761 mmHg 65%
    18:00 +31°C° 1.4 mm 3 mps 761 mmHg 69%
    19:00 +31°C° 1.4 mm 3 mps 761 mmHg 73%
    20:00 +30°C° 1.5 mm 3 mps 761 mmHg 74%
    21:00 +30°C° 1.5 mm 3 mps 761 mmHg 75%
    22:00 +30°C° 1.5 mm 3 mps 762 mmHg 76%
    23:00 +29°C° 1 mm 3 mps 761 mmHg 78%

    Tomorrow, 22 July, Monday

    Time Temperature Precipitation Wind Pressure Humidity
    00:00 +29°C° 1 mm 3 mps 761 mmHg 79%
    01:00 +28°C° 1 mm 4 mps 761 mmHg 81%
    02:00 +28°C° 0.1 mm 3 mps 761 mmHg 83%
    03:00 +28°C° 0.1 mm 3 mps 761 mmHg 84%
    04:00 +27°C° 0.1 mm 3 mps 760 mmHg 86%
    05:00 +28°C° 0 mm 3 mps 761 mmHg 85%
    06:00 +28°C° 0 mm 3 mps 761 mmHg 84%
    07:00 +28°C° 0 mm 3 mps 761 mmHg 82%
    08:00 +30°C° 0 mm 3 mps 761 mmHg 74%
    09:00 +31°C° 0 mm 3 mps 762 mmHg 65%
    10:00 +34°C° 0 mm 3 mps 762 mmHg 56%
    11:00 +35°C° 0 mm 3 mps 762 mmHg 53%
    12:00 +36°C° 0 mm 3 mps 762 mmHg 50%
    13:00 +37°C° 0 mm 3 mps 762 mmHg 46%
    14:00 +36°C° 0.2 mm 3 mps 761 mmHg 50%
    15:00 +35°C° 0.2 mm 4 mps 761 mmHg 54%
    16:00 +35°C° 0.2 mm 4 mps 760 mmHg 58%
    17:00 +34°C° 0.4 mm 4 mps 760 mmHg 62%
    18:00 +33°C° 0.4 mm 4 mps 760 mmHg 65%
    19:00 +32°C° 0.4 mm 4 mps 760 mmHg 68%
    20:00 +31°C° 0.2 mm 3 mps 760 mmHg 70%
    21:00 +30°C° 0.2 mm 3 mps 760 mmHg 72%
    22:00 +30°C° 0.2 mm 2 mps 761 mmHg 74%
    23:00 +29°C° 0 mm 2 mps 760 mmHg 75%

    Day after tomorrow, 23 July, Tuesday

    Time Temperature Precipitation Wind Pressure Humidity
    00:00 +29°C° 0 mm 2 mps 760 mmHg 77%
    01:00 +29°C° 0 mm 2 mps 760 mmHg 78%
    02:00 +28°C° 0.1 mm 2 mps 760 mmHg 79%
    03:00 +28°C° 0.1 mm 2 mps 759 mmHg 80%
    04:00 +28°C° 0.1 mm 2 mps 759 mmHg 81%
    05:00 +28°C° 0.2 mm 2 mps 759 mmHg 80%
    06:00 +28°C° 0.2 mm 2 mps 760 mmHg 80%
    07:00 +28°C° 0.2 mm 2 mps 760 mmHg 79%
    08:00 +30°C° 0.2 mm 2 mps 760 mmHg 71%
    09:00 +32°C° 0.2 mm 2 mps 761 mmHg 64%
    10:00 +34°C° 0.2 mm 2 mps 761 mmHg 56%
    11:00 +35°C° 0.4 mm 3 mps 761 mmHg 55%
    12:00 +35°C° 0.4 mm 4 mps 761 mmHg 53%
    13:00 +36°C° 0.4 mm 4 mps 760 mmHg 52%
    14:00 +36°C° 0.1 mm 5 mps 760 mmHg 53%
    15:00 +35°C° 0.1 mm 5 mps 760 mmHg 53%
    16:00 +35°C° 0.1 mm 5 mps 759 mmHg 54%
    17:00 +34°C° 0.1 mm 5 mps 759 mmHg 59%
    18:00 +33°C° 0.1 mm 5 mps 759 mmHg 63%
    19:00 +32°C° 0.1 mm 4 mps 760 mmHg 68%
    20:00 +32°C° 0.4 mm 4 mps 760 mmHg 70%
    21:00 +30°C° 0.4 mm 3 mps 760 mmHg 71%
    22:00 +30°C° 0.4 mm 3 mps 761 mmHg 73%
    23:00 +30°C° 0.3 mm 2 mps 760 mmHg 74%

    24 July, Wednesday

    Time Temperature Precipitation Wind Pressure Humidity
    00:00 +29°C° 0.3 mm 2 mps 760 mmHg 75%
    01:00 +29°C° 0.3 mm 2 mps 760 mmHg 75%
    02:00 +29°C° 0 mm 2 mps 760 mmHg 76%
    03:00 +29°C° 0 mm 2 mps 759 mmHg 76%
    04:00 +29°C° 0 mm 2 mps 759 mmHg 77%
    05:00 +29°C° 0 mm 2 mps 759 mmHg 75%
    06:00 +29°C° 0 mm 2 mps 760 mmHg 74%
    07:00 +30°C° 0 mm 2 mps 760 mmHg 73%
    08:00 +31°C° 0 mm 2 mps 760 mmHg 68%
    09:00 +33°C° 0 mm 3 mps 761 mmHg 63%
    10:00 +34°C° 0 mm 3 mps 761 mmHg 57%
    11:00 +34°C° 0 mm 4 mps 761 mmHg 56%
    12:00 +35°C° 0 mm 4 mps 761 mmHg 56%
    13:00 +35°C° 0 mm 5 mps 760 mmHg 55%
    14:00 +35°C° 0 mm 5 mps 760 mmHg 57%
    15:00 +34°C° 0 mm 5 mps 760 mmHg 59%
    16:00 +34°C° 0 mm 5 mps 759 mmHg 61%
    17:00 +33°C° 0 mm 5 mps 760 mmHg 64%
    18:00 +32°C° 0 mm 4 mps 760 mmHg 67%
    19:00 +32°C° 0 mm 4 mps 760 mmHg 70%
    20:00 +30°C° 0 mm 4 mps 760 mmHg 71%
    21:00 +30°C° 0 mm 3 mps 761 mmHg 72%
    22:00 +30°C° 0 mm 3 mps 761 mmHg 73%
    23:00 +30°C° 0 mm 2 mps 761 mmHg 73%

    25 July, Thursday

    Time Temperature Precipitation Wind Pressure Humidity
    00:00 +29°C° 0 mm 2 mps 760 mmHg 73%
    01:00 +29°C° 0 mm 2 mps 760 mmHg 74%
    02:00 +29°C° 0 mm 2 mps 760 mmHg 74%
    03:00 +29°C° 0 mm 2 mps 760 mmHg 75%
    04:00 +29°C° 0 mm 2 mps 760 mmHg 75%
    05:00 +29°C° 0 mm 2 mps 760 mmHg 74%
    06:00 +29°C° 0 mm 2 mps 761 mmHg 74%
    07:00 +30°C° 0 mm 2 mps 761 mmHg 73%
    08:00 +31°C° 0 mm 3 mps 762 mmHg 69%
    09:00 +33°C° 0 mm 3 mps 762 mmHg 64%
    10:00 +34°C° 0 mm 4 mps 762 mmHg 60%
    11:00 +34°C° 0 mm 4 mps 762 mmHg 58%
    12:00 +35°C° 0 mm 4 mps 762 mmHg 56%
    13:00 +35°C° 0 mm 4 mps 762 mmHg 54%
    14:00 +35°C° 0 mm 4 mps 762 mmHg 55%
    15:00 +35°C° 0 mm 4 mps 762 mmHg 56%
    16:00 +34°C° 0 mm 4 mps 761 mmHg 57%
    17:00 +34°C° 0 mm 3 mps 762 mmHg 60%
    18:00 +33°C° 0 mm 3 mps 762 mmHg 64%
    19:00 +31°C° 0 mm 2 mps 762 mmHg 67%
    20:00 +31°C° 0 mm 2 mps 762 mmHg 68%
    21:00 +30°C° 0 mm 1 mps 763 mmHg 69%
    22:00 +30°C° 0 mm 1 mps 763 mmHg 70%
    23:00 +30°C° 0 mm 1 mps 763 mmHg 72%

    26 July, Friday

    Time Temperature Precipitation Wind Pressure Humidity
    00:00 +27°C° 0 mm 0 mps 763 mmHg 73%
    01:00 +27°C° 0 mm 0 mps 763 mmHg 74%
    02:00 +27°C° 0 mm 0 mps 762 mmHg 75%
    03:00 +29°C° 0 mm 1 mps 762 mmHg 75%
    04:00 +28°C° 0 mm 1 mps 762 mmHg 76%
    05:00 +28°C° 0 mm 1 mps 763 mmHg 76%
    06:00 +28°C° 0 mm 2 mps 763 mmHg 77%
    07:00 +28°C° 0 mm 2 mps 763 mmHg 77%
    08:00 +30°C° 0 mm 2 mps 764 mmHg 71%
    09:00 +31°C° 0 mm 2 mps 764 mmHg 64%
    10:00 +34°C° 0 mm 2 mps 764 mmHg 58%
    11:00 +35°C° 0 mm 2 mps 764 mmHg 54%
    12:00 +36°C° 0 mm 2 mps 764 mmHg 49%
    13:00 +37°C° 0 mm 2 mps 764 mmHg 45%
    14:00 +37°C° 0.2 mm 2 mps 764 mmHg 48%
    15:00 +36°C° 0.2 mm 3 mps 763 mmHg 51%
    16:00 +35°C° 0.2 mm 3 mps 763 mmHg 55%
    17:00 +35°C° 0.8 mm 3 mps 763 mmHg 58%
    18:00 +34°C° 0.8 mm 3 mps 763 mmHg 62%
    19:00 +33°C° 0.8 mm 3 mps 763 mmHg 66%
    20:00 +33°C° 1.1 mm 3 mps 764 mmHg 67%
    21:00 +31°C° 1.1 mm 3 mps 764 mmHg 69%
    22:00 +30°C° 1.1 mm 2 mps 764 mmHg 70%
    23:00 +30°C° 0 mm 2 mps 764 mmHg 71%
    Show more